Wind_Speed
20 18 17 16 13 11 12 6 9 11 16 26 28 22 20 28 28 30 27 29 32 34 34 33 33 33 33 34 36 33 28 23 23 23 23 26 27 26 27 29 29 29 28 29 25 27 32 35 34
22 22 20 17 14 9 16 14 16 17 24 26 29 19 22 32 28 33 28 28 33 36 35 34 33 34 34 33 34 31 26 22 21 22 25 25 25 27 27 27 28 30 31 29 29 28 28 31 33
25 27 21 21 17 13 19 20 19 23 28 31 26 18 18 28 35 28 32 34 32 35 35 35 33 34 35 36 34 30 25 20 20 23 26 25 26 28 30 30 30 30 31 32 32 30 31 32 32
25 28 24 25 18 16 23 25 19 18 19 6 5 9 16 27 28 36 42 27 34 37 35 36 32 36 38 40 35 29 24 20 22 25 26 27 28 31 33 35 36 32 30 30 30 31 31 33 33
30 32 34 27 27 23 22 21 16 24 12 16 23 17 26 26 33 40 38 39 39 39 39 35 25 33 40 37 33 28 24 24 26 25 27 28 30 33 35 38 39 36 31 28 27 27 27 29 35
39 40 39 40 30 23 23 13 15 22 18 26 22 21 29 35 41 42 42 41 40 41 41 39 35 36 38 35 31 27 26 28 27 25 28 29 31 34 37 39 37 31 28 27 26 25 25 24 29
40 44 41 39 38 34 28 20 22 26 32 34 32 23 35 42 38 46 46 46 41 45 43 43 45 35 35 37 30 28 27 28 27 27 28 30 33 35 36 33 33 30 28 26 25 24 23 24 24
46 50 45 44 42 41 33 26 13 23 28 24 28 29 32 40 41 47 48 48 48 51 46 41 47 40 34 34 33 31 30 29 26 28 29 31 33 35 32 32 33 33 31 31 28 27 26 25 25
58 59 55 49 37 30 30 39 32 15 26 27 26 34 30 35 40 42 43 46 46 49 52 45 48 50 34 35 38 33 31 29 26 28 30 31 33 35 33 34 33 32 30 30 29 29 28 27 27
60 60 58 46 39 37 36 44 43 30 34 17 24 27 37 32 36 38 38 47 49 51 52 46 49 50 42 36 34 35 31 29 27 29 29 31 33 35 35 35 31 30 29 28 32 33 30 29 29
60 59 51 43 39 39 37 37 37 48 48 37 34 32 29 32 34 41 47 44 54 49 46 44 48 51 44 37 33 32 30 29 27 28 29 31 32 35 36 34 32 31 30 29 31 30 30 27 27
60 60 56 49 45 43 43 40 41 45 52 47 39 39 40 39 45 48 55 55 58 50 42 42 46 48 43 37 33 31 31 30 28 29 29 29 31 35 37 35 33 32 32 31 31 31 29 28 27
66 60 56 50 49 46 47 48 45 46 47 46 43 47 51 55 54 55 60 62 54 47 44 40 41 41 37 36 35 33 33 29 26 28 29 29 30 35 36 38 35 34 32 33 34 31 28 27 25
59 57 55 53 53 53 53 51 51 48 49 49 48 51 52 54 56 54 56 54 49 48 49 44 35 39 36 35 35 36 35 29 25 25 27 28 31 34 38 38 37 36 36 37 37 31 29 28 26
69 65 63 59 56 57 53 54 46 44 45 45 47 48 45 43 44 46 48 47 47 47 39 29 33 39 38 37 36 38 39 31 27 27 26 27 29 35 39 41 40 39 38 37 36 33 32 32 29
69 73 70 58 58 56 55 51 43 44 41 41 40 34 35 40 37 36 38 42 45 43 41 32 37 39 39 37 37 38 40 33 29 30 30 29 33 35 42 44 45 45 41 41 41 39 36 35 33
60 65 65 53 50 54 61 47 45 41 39 39 35 31 32 27 25 26 28 38 44 48 43 37 41 38 37 34 33 35 31 30 32 33 33 31 33 41 44 46 48 46 46 45 45 42 39 37 35
55 55 52 49 53 54 53 51 45 37 37 34 32 34 28 31 37 34 40 43 48 48 44 41 39 34 35 32 28 29 26 26 30 32 32 34 37 42 47 48 48 46 45 44 43 41 40 36 35
53 54 51 49 48 47 45 45 40 32 32 33 34 29 29 34 38 42 32 33 41 45 39 39 35 34 32 31 28 25 25 27 29 32 32 33 39 43 44 45 46 44 41 42 39 35 33 30 29
59 55 48 45 46 44 38 43 40 33 34 32 34 29 35 36 34 29 31 34 41 44 41 38 29 32 29 27 26 25 26 29 30 31 34 38 39 41 42 43 41 41 37 31 28 25 24 24 24
57 55 47 46 49 43 43 50 46 33 27 32 34 36 34 29 27 29 33 39 40 37 31 25 27 28 26 25 24 25 28 30 30 31 31 37 37 38 38 38 38 32 26 22 22 22 20 20 19
59 54 52 53 52 47 45 56 42 28 28 31 31 38 23 21 27 30 32 34 36 26 18 21 24 22 23 24 23 27 28 29 29 30 33 34 35 33 33 32 28 23 20 18 20 19 18 18 18
56 54 53 52 51 49 51 47 23 28 25 25 27 25 21 23 28 28 30 30 24 20 19 19 19 22 22 22 25 27 27 26 26 29 30 33 32 30 28 25 21 18 17 17 18 16 17 15 13
59 58 52 49 47 50 38 44 20 21 23 27 19 20 21 27 27 26 24 20 16 14 15 17 21 20 20 23 26 24 23 24 24 27 29 29 27 27 23 19 17 16 15 16 14 13 14 10 4
58 58 55 54 53 45 33 41 28 16 20 14 19 20 25 24 22 20 14 13 11 14 15 19 18 19 22 23 21 20 22 23 25 25 26 25 24 20 17 15 13 12 11 13 16 15 13 7 4
58 61 60 59 55 43 40 48 18 20 17 10 14 19 21 17 17 14 13 11 14 14 17 15 17 20 20 20 17 21 23 23 23 23 24 21 20 13 13 12 9 8 8 12 15 16 13 9 4
55 64 51 57 54 51 46 40 27 18 11 8 18 15 13 10 14 6 9 11 14 16 13 15 17 17 18 18 19 20 20 20 23 23 22 20 14 11 11 6 7 6 8 14 16 13 10 8 5
58 53 56 56 55 54 45 41 31 15 9 13 13 15 9 11 11 10 11 10 14 12 13 14 16 15 16 17 15 18 17 19 21 19 18 14 10 10 9 3 6 6 11 16 12 10 5 6 3
55 53 61 57 57 51 46 35 10 12 18 17 17 13 13 14 12 13 12 12 9 9 10 12 12 14 14 13 14 16 17 20 15 14 12 10 9 7 7 3 4 5 7 12 18 8 6 5 2
65 61 58 62 55 50 43 26 12 15 22 17 18 15 17 14 10 14 14 10 6 7 8 10 12 11 11 13 14 16 14 13 11 12 11 9 8 6 3 2 4 5 8 14 8 5 12 8 2
Wind_Direction
217 216 215 218 213 197 205 203 155 191 233 242 252 254 281 275 291 295 307 307 315 311 315 320 323 327 332 330 332 333 330 329 326 322 320 319 319 316 314 314 314 311 304 298 287 275 274 272 266
223 226 223 225 215 195 226 228 211 213 255 253 248 236 282 296 304 308 305 314 310 309 313 321 329 331 331 331 331 331 331 330 322 318 318 318 318 317 318 315 312 309 303 296 288 285 277 274 271
224 235 231 231 234 259 237 260 223 242 235 236 251 232 271 284 302 308 302 307 306 307 313 319 328 331 333 333 334 331 331 324 319 318 318 318 318 319 317 315 311 307 300 293 288 280 280 276 272
225 237 236 244 233 238 249 251 242 285 269 215 319 276 281 290 297 297 307 308 310 306 311 318 323 330 334 335 334 332 330 323 323 322 319 318 321 320 319 320 316 315 306 296 285 277 268 265 270
233 236 237 243 240 253 251 261 302 304 308 330 317 263 307 299 289 291 303 303 305 306 303 306 315 339 334 333 330 331 327 323 325 322 318 319 321 321 320 320 317 318 310 302 296 289 277 265 258
232 246 248 242 243 242 235 221 312 276 265 264 260 284 293 286 285 287 293 296 304 306 308 316 326 334 330 328 328 324 321 321 322 319 317 323 323 323 322 320 318 317 312 312 305 298 290 276 260
239 242 245 247 247 249 237 220 238 250 253 263 268 256 266 276 283 289 301 301 300 307 315 317 319 325 329 323 325 317 316 318 316 315 320 324 325 326 326 321 318 316 312 311 309 299 292 283 272
236 241 245 247 254 258 248 210 223 250 253 240 258 238 256 272 279 286 298 301 309 311 304 311 316 320 323 327 320 316 312 312 309 313 319 323 325 326 325 319 318 318 315 309 306 301 294 287 278
253 258 255 249 255 265 241 229 221 228 252 240 249 255 250 257 260 265 274 292 308 310 309 313 313 313 326 323 317 312 308 306 306 315 321 323 325 323 322 317 319 317 312 305 301 297 293 287 282
264 263 270 260 256 262 252 252 241 233 249 250 239 250 261 256 260 269 287 295 303 305 301 306 309 310 324 317 315 309 304 301 305 315 319 320 323 321 320 319 317 311 307 307 307 300 295 290 283
256 265 277 264 265 263 259 246 251 246 244 252 254 263 270 273 274 276 286 290 295 297 291 297 305 307 316 313 314 303 300 299 308 314 316 318 320 320 319 318 314 310 307 304 307 306 301 296 287
254 267 271 267 262 260 261 262 259 257 264 256 254 258 264 269 274 280 280 286 295 293 287 293 302 306 309 312 309 298 299 296 307 312 313 315 316 316 317 314 312 308 307 307 304 304 300 297 291
257 262 262 263 261 260 259 264 265 264 259 266 269 267 272 274 281 282 284 288 291 289 287 296 295 294 305 307 302 295 296 293 305 307 308 314 312 316 315 317 314 312 307 303 304 301 298 293 288
255 253 254 252 257 260 262 265 258 266 269 270 269 273 271 274 278 278 278 285 290 286 290 301 287 296 307 305 296 293 297 290 301 303 307 308 307 312 312 313 312 309 309 305 305 299 299 296 289
251 253 254 253 256 261 262 263 268 279 270 271 273 271 273 275 277 281 282 284 286 283 289 291 282 292 301 299 293 293 297 290 300 303 304 303 303 308 313 314 311 308 307 306 304 297 295 293 286
246 248 254 257 261 263 261 270 271 267 276 275 275 281 282 282 291 287 282 283 282 286 287 289 287 291 294 291 288 291 293 288 299 304 307 303 306 309 310 310 308 307 305 303 300 294 288 288 283
246 252 255 259 262 265 262 264 266 276 276 270 274 277 278 294 288 290 281 285 280 279 287 290 284 286 284 283 284 288 293 303 307 309 302 307 310 308 306 307 305 306 304 302 299 293 286 283 277
253 256 261 259 259 262 268 274 271 272 271 274 279 279 296 289 288 282 284 283 280 281 284 280 282 277 274 273 278 281 299 302 302 301 302 305 308 305 303 303 302 302 303 301 297 292 287 282 277
254 254 253 256 259 263 263 270 270 267 275 276 278 293 287 278 278 284 291 285 286 281 279 277 281 266 268 272 277 283 298 300 306 302 306 309 302 301 301 303 305 306 306 303 296 293 288 283 272
244 249 253 257 258 260 259 265 271 257 258 269 276 280 280 283 289 292 287 285 275 275 277 275 270 261 263 274 278 285 298 302 299 302 304 303 302 303 305 308 307 309 309 304 303 301 292 283 273
240 244 248 253 257 257 260 262 265 263 273 270 277 282 278 294 290 283 280 274 276 277 273 266 259 259 268 278 280 290 298 297 297 300 300 297 302 303 306 307 308 309 310 313 311 304 293 286 272
237 240 243 248 252 254 254 263 259 262 258 267 271 273 290 277 277 272 265 265 272 276 246 247 256 264 274 281 290 295 293 295 294 301 295 298 298 305 305 306 308 314 319 324 326 322 311 291 273
232 233 237 241 245 250 250 258 255 256 262 260 271 284 287 282 282 288 283 278 273 264 239 248 255 267 278 291 294 293 294 294 299 294 296 299 304 306 309 308 314 323 324 324 325 321 323 312 272
228 228 230 236 240 242 243 252 247 255 262 266 279 275 279 280 300 296 290 277 266 245 247 242 258 278 288 289 289 291 295 305 296 295 297 301 307 311 312 315 322 330 339 337 340 336 343 341 291
221 225 222 225 228 237 235 251 257 260 277 275 280 268 269 291 298 291 286 281 249 240 239 248 272 284 287 289 295 293 302 296 294 299 303 305 309 309 310 314 330 337 355 351 353 1 359 5 38
218 218 223 224 230 235 236 241 247 265 286 291 276 262 283 295 288 284 260 241 250 247 252 275 285 284 292 293 295 295 299 292 297 302 302 306 308 309 307 320 336 354 6 5 345 344 357 16 42
219 213 224 226 227 231 233 244 242 238 289 246 238 263 299 271 276 266 233 228 240 255 275 285 287 291 291 296 294 292 289 296 303 307 305 313 304 306 304 335 340 360 356 345 333 333 338 8 40
213 214 207 217 219 225 224 237 250 246 273 278 269 288 273 273 258 260 256 245 250 266 280 289 289 285 293 296 294 291 296 298 302 299 305 303 300 289 295 345 359 8 0 357 8 10 3 22 34
205 208 207 211 218 221 224 224 198 229 256 262 272 294 256 264 257 249 241 243 256 271 297 293 286 292 295 294 296 300 299 301 298 302 305 301 295 285 290 38 37 8 10 4 1 11 328 357 45
204 199 202 205 212 217 217 196 161 201 245 253 267 281 243 256 248 243 240 243 257 285 296 294 293 295 299 301 301 300 304 302 307 307 303 304 294 274 267 81 71 15 27 6 23 19 12 24 242
Height
5890 5890 5892 5896 5900 5901 5903 5904 5902 5898 5901 5898 5899 5902 5900 5893 5897 5897 5894 5893 5889 5886 5884 5883 5881 5878 5877 5874 5871 5870 5868 5866 5863 5862 5861 5860 5858 5855 5854 5851 5848 5845 5844 5845 5844 5843 5842 5843 5843
5887 5887 5889 5892 5895 5898 5900 5900 5894 5894 5897 5898 5894 5897 5894 5888 5891 5892 5892 5892 5888 5883 5881 5880 5878 5875 5873 5871 5868 5866 5863 5861 5859 5857 5856 5854 5853 5851 5849 5847 5844 5841 5840 5838 5837 5836 5836 5836 5836
5881 5885 5886 5889 5892 5895 5898 5897 5893 5891 5889 5889 5889 5891 5891 5887 5884 5888 5885 5888 5885 5880 5877 5878 5877 5873 5870 5866 5863 5860 5858 5856 5854 5852 5850 5849 5847 5846 5844 5841 5839 5836 5834 5832 5831 5830 5829 5829 5830
5876 5881 5882 5885 5889 5892 5892 5891 5890 5888 5882 5884 5886 5887 5886 5882 5882 5883 5881 5883 5883 5878 5876 5876 5875 5870 5866 5861 5858 5856 5854 5852 5850 5847 5844 5842 5841 5839 5837 5832 5830 5829 5827 5825 5824 5822 5822 5823 5823
5872 5875 5876 5881 5886 5888 5890 5888 5886 5882 5880 5882 5879 5883 5878 5879 5877 5877 5880 5877 5877 5877 5875 5875 5875 5868 5862 5859 5855 5852 5850 5848 5845 5842 5839 5838 5836 5833 5829 5825 5822 5821 5819 5818 5816 5814 5814 5815 5816
5866 5870 5871 5876 5880 5884 5885 5887 5886 5883 5884 5885 5885 5880 5874 5875 5875 5870 5875 5874 5869 5868 5867 5866 5867 5864 5860 5857 5852 5850 5847 5844 5841 5838 5836 5834 5830 5828 5823 5820 5816 5816 5814 5811 5809 5808 5807 5807 5808
5861 5862 5866 5868 5872 5876 5881 5877 5877 5882 5882 5881 5881 5879 5874 5869 5867 5864 5863 5864 5861 5859 5860 5858 5858 5863 5858 5853 5850 5847 5844 5840 5837 5834 5832 5829 5826 5823 5819 5815 5812 5811 5809 5807 5805 5803 5801 5801 5802
5852 5851 5857 5860 5867 5872 5873 5869 5867 5871 5876 5876 5872 5876 5872 5866 5865 5861 5856 5853 5859 5853 5854 5856 5852 5856 5856 5850 5846 5843 5840 5837 5833 5830 5827 5825 5821 5818 5815 5812 5809 5805 5803 5801 5799 5797 5796 5795 5795
5841 5843 5849 5856 5861 5868 5866 5860 5861 5865 5864 5866 5869 5865 5869 5869 5866 5861 5860 5856 5856 5851 5847 5848 5846 5843 5852 5846 5841 5839 5836 5833 5829 5825 5823 5820 5817 5813 5811 5808 5805 5800 5798 5796 5793 5791 5790 5789 5788
5832 5835 5840 5854 5853 5854 5858 5852 5859 5858 5853 5863 5858 5859 5858 5858 5856 5853 5854 5851 5851 5852 5844 5845 5841 5839 5845 5844 5838 5833 5830 5828 5824 5820 5818 5816 5812 5809 5806 5804 5801 5797 5795 5791 5788 5785 5783 5781 5780
5825 5824 5836 5839 5841 5844 5847 5848 5850 5848 5851 5853 5850 5852 5852 5852 5850 5846 5849 5848 5847 5847 5843 5841 5838 5834 5839 5836 5832 5828 5825 5822 5819 5816 5813 5811 5808 5804 5800 5798 5795 5792 5789 5786 5783 5779 5775 5773 5772
5814 5819 5823 5828 5833 5835 5836 5841 5841 5843 5842 5846 5847 5846 5845 5847 5844 5842 5841 5841 5839 5838 5837 5837 5833 5829 5831 5828 5826 5823 5819 5817 5814 5810 5809 5805 5802 5799 5795 5792 5789 5786 5782 5779 5777 5774 5771 5768 5766
5803 5812 5811 5817 5822 5825 5828 5828 5830 5832 5835 5837 5841 5842 5841 5838 5838 5836 5832 5830 5834 5828 5826 5831 5828 5829 5828 5822 5820 5818 5815 5812 5808 5806 5804 5801 5798 5794 5790 5787 5782 5778 5776 5772 5769 5767 5766 5763 5761
5798 5796 5801 5804 5809 5814 5816 5816 5821 5825 5832 5831 5832 5832 5831 5830 5829 5828 5826 5824 5823 5819 5818 5821 5820 5820 5819 5815 5813 5811 5810 5807 5804 5802 5799 5796 5793 5789 5785 5780 5777 5772 5768 5763 5760 5759 5757 5756 5755
5781 5784 5788 5793 5799 5800 5807 5803 5811 5819 5819 5820 5820 5820 5821 5820 5818 5818 5817 5817 5813 5810 5813 5814 5812 5812 5812 5808 5805 5804 5803 5802 5798 5796 5795 5792 5789 5785 5779 5774 5769 5766 5763 5759 5755 5752 5751 5750 5748
5766 5769 5773 5788 5791 5795 5801 5791 5808 5808 5810 5809 5808 5810 5809 5808 5812 5810 5809 5806 5804 5804 5804 5808 5807 5805 5803 5800 5796 5795 5794 5793 5791 5788 5786 5784 5781 5777 5772 5768 5762 5757 5755 5751 5748 5746 5744 5743 5741
5758 5758 5766 5779 5787 5789 5789 5782 5791 5800 5799 5798 5801 5801 5801 5803 5801 5801 5799 5798 5797 5796 5798 5798 5798 5797 5796 5793 5789 5786 5784 5782 5779 5777 5776 5774 5772 5769 5764 5760 5755 5749 5746 5742 5739 5736 5734 5733 5732
5751 5757 5763 5767 5776 5778 5777 5775 5783 5790 5789 5788 5791 5791 5792 5792 5789 5791 5793 5791 5789 5789 5790 5789 5789 5789 5789 5787 5784 5781 5780 5777 5774 5771 5768 5766 5764 5761 5757 5752 5748 5743 5738 5733 5729 5726 5722 5722 5722
5744 5744 5748 5755 5762 5767 5769 5768 5771 5780 5778 5779 5781 5784 5784 5782 5783 5784 5785 5783 5779 5776 5780 5778 5779 5780 5781 5780 5778 5776 5774 5773 5769 5765 5763 5762 5759 5754 5750 5744 5738 5733 5729 5725 5719 5715 5712 5712 5712
5727 5735 5741 5749 5753 5757 5762 5758 5762 5770 5771 5774 5774 5777 5775 5775 5777 5777 5775 5773 5769 5768 5769 5771 5772 5773 5773 5773 5771 5770 5768 5766 5764 5762 5757 5754 5751 5746 5740 5736 5729 5726 5722 5717 5712 5708 5705 5703 5704
5719 5725 5735 5739 5743 5748 5751 5745 5752 5762 5766 5765 5766 5766 5768 5769 5768 5767 5766 5763 5760 5760 5761 5762 5764 5766 5767 5766 5765 5763 5763 5760 5758 5755 5752 5748 5744 5740 5735 5729 5725 5721 5717 5712 5708 5704 5700 5698 5697
5707 5720 5726 5728 5734 5736 5745 5733 5744 5755 5756 5759 5761 5758 5764 5763 5761 5759 5758 5756 5755 5755 5754 5756 5758 5760 5760 5759 5758 5757 5756 5754 5751 5749 5745 5743 5739 5735 5730 5725 5721 5717 5713 5709 5706 5701 5697 5694 5692
5701 5708 5713 5719 5722 5727 5730 5733 5741 5746 5749 5751 5753 5753 5753 5752 5752 5750 5749 5749 5750 5750 5751 5752 5753 5754 5755 5753 5753 5751 5748 5748 5745 5742 5740 5736 5732 5729 5725 5722 5718 5714 5710 5707 5703 5698 5694 5690 5688
5686 5693 5702 5709 5714 5711 5727 5728 5730 5740 5744 5744 5747 5747 5746 5744 5743 5742 5742 5743 5745 5747 5747 5749 5749 5749 5749 5749 5747 5745 5743 5740 5738 5736 5734 5731 5727 5723 5721 5718 5715 5712 5709 5705 5701 5697 5693 5690 5688
5671 5680 5687 5695 5698 5709 5724 5719 5726 5737 5736 5738 5739 5739 5738 5739 5737 5737 5738 5739 5742 5742 5744 5744 5745 5745 5745 5743 5741 5739 5737 5735 5733 5732 5729 5725 5722 5720 5718 5716 5714 5710 5707 5704 5700 5697 5695 5691 5689
5658 5667 5673 5684 5692 5705 5714 5705 5725 5728 5728 5731 5733 5733 5733 5733 5733 5733 5734 5736 5738 5740 5740 5741 5741 5740 5740 5738 5736 5733 5732 5730 5729 5727 5724 5722 5720 5718 5715 5714 5712 5710 5707 5704 5701 5698 5696 5693 5690
5648 5649 5677 5679 5687 5694 5702 5710 5716 5722 5724 5726 5729 5728 5729 5730 5729 5730 5732 5734 5735 5736 5737 5737 5737 5736 5735 5733 5731 5729 5728 5726 5724 5721 5719 5718 5717 5715 5714 5713 5712 5709 5707 5704 5700 5697 5695 5694 5692
5630 5656 5657 5665 5674 5684 5696 5702 5712 5715 5721 5723 5722 5724 5726 5726 5727 5728 5730 5730 5732 5734 5734 5734 5733 5732 5730 5729 5726 5725 5725 5723 5721 5718 5716 5716 5715 5714 5713 5712 5710 5709 5706 5704 5700 5697 5695 5694 5692
5627 5636 5645 5660 5667 5679 5690 5698 5711 5709 5714 5720 5720 5722 5723 5724 5725 5727 5727 5728 5730 5731 5731 5730 5729 5728 5726 5725 5723 5722 5721 5719 5717 5715 5715 5714 5713 5712 5712 5711 5710 5709 5708 5705 5702 5699 5697 5695 5693
5610 5621 5636 5645 5661 5674 5684 5697 5703 5706 5709 5713 5714 5720 5721 5722 5723 5725 5725 5726 5728 5728 5728 5727 5726 5724 5723 5721 5720 5719 5717 5715 5713 5713 5713 5712 5711 5711 5711 5711 5709 5709 5707 5705 5703 5701 5700 5695 5695